Home > Weather > May Pen > Past weeks

Flag for Jamaica Past Weather in May Pen, Jamaica — Yesterday and Last 2 Weeks

Now
84 °F

Passing clouds.


Feels Like: 94 °F
Forecast: 78 / 89 °F
Wind: 13 mph from Southeast

Location: Kingston / Norman Manley

Current Time: May 24, 2016 at 3:09:13 AM

Latest Report: May 24, 2016 at 2:00 AM


Visibility: N/A

Pressure: 29.92 "Hg

Humidity: 79%

Dew Point: 77 °F

Location of May PenLocation

Past Weather in May Pen — Graph

°F

May Pen Temperature Yesterday

Maximum temperature yesterday: 90 °F (at 5:00 PM)
Minimum temperature yesterday: 81 °F (at 7:00 PM)
Average temperature yesterday: 85 °F

High & Low Weather Summary for the Past Weeks

 TemperatureHumidityPressure
High91 °F (May 16, 12:00 PM)89% (May 12, 3:00 PM)30.04 "Hg (May 12, 3:00 PM)
Low77 °F (May 12, 3:00 PM)55% (May 9, 12:00 PM)29.83 "Hg (May 22, 4:00 PM)
Average85 °F71%29.95 "Hg
* Reported May 9 1:00 AM — May 24 1:00 AM, May Pen, Weather by CustomWeather, © 2016

Note: Actual official high and low records may vary slightly from our data, if they occured in-between our weather recording intervals... More about our weather records

Advertising

May Pen Weather History for the Previous 24 Hours

Scroll right to see more
 ConditionsComfort  
Time TempWeatherWind HumidityBarometerVisibility
1:00 AM
Tue, May 24
84 °FPassing clouds.14 mph79%29.95 "HgN/A
12:00 AM84 °FPassing clouds.10 mph74%29.95 "HgN/A
11:00 PM
Mon, May 23
86 °FPassing clouds.12 mph70%29.98 "HgN/A
10:00 PM84 °FPassing clouds.13 mph74%29.95 "HgN/A
9:00 PM84 °FThundershowers. Passing clouds.16 mph70%29.95 "HgN/A
8:00 PM82 °FThundershowers. Passing clouds.15 mph70%29.92 "HgN/A
7:00 PM81 °FThundershowers. Passing clouds.20 mph79%29.89 "HgN/A
6:00 PM82 °FScattered clouds.29 mph79%29.89 "HgN/A
5:00 PM90 °FPartly sunny.15 mph63%29.86 "HgN/A
4:00 PM88 °FScattered clouds.17 mph70%29.89 "HgN/A
3:00 PM86 °FScattered showers. Partly sunny.26 mph75%29.89 "HgN/A
2:00 PM88 °FPassing clouds.26 mph66%29.89 "HgN/A
1:00 PM88 °FPassing clouds.24 mph75%29.89 "HgN/A
12:00 PM88 °FPassing clouds.22 mph70%29.89 "HgN/A
11:00 AM88 °FPassing clouds.23 mph70%29.92 "HgN/A
10:00 AM86 °FPassing clouds.17 mph79%29.92 "HgN/A
9:00 AM86 °FScattered clouds.16 mph75%29.92 "HgN/A
8:00 AM86 °FScattered showers. Partly sunny.16 mph70%29.92 "HgN/A
7:00 AM86 °FScattered showers. Passing clouds.13 mph75%29.92 "HgN/A
6:00 AM84 °FScattered showers. Scattered clouds.13 mph74%29.89 "HgN/A
5:00 AM84 °FPassing clouds.13 mph74%29.89 "HgN/A
4:00 AM84 °FPassing clouds.14 mph74%29.89 "HgN/A
3:00 AM84 °FPassing clouds.16 mph74%29.89 "HgN/A
Weather by CustomWeather, © 2016

See weather overviewHow to use our weather pages